Torna al catalogo

COSMOS 1980 DEB

AttivoLEO
NORAD 20301·DEBRIS·🇷🇺 Russia

Lanciato Nov 23, 1988 da Baikonur Cosmodrome

Loading…

Prossimi Passaggi (prossime 24 ore)

TLE

AggiornatoSource: Space-Track

Epoca: Sep 14, 2026, 12:58 UTC

1 20301U 88102J   26257.54042502 -.00000268  00000-0 -11456-3 0  9997
2 20301  70.9972 196.2275 0015349   5.8027 354.3270 14.14492525917972

Traccia COSMOS 1980 DEB in tempo reale con AllMySat

Download on the App Store